COSMOS 1275 DEB, 13024

Orbit data source: Space-Track

COSMOS 1275 DEB, 13024 is space debris in LEO originally from a launch on Thu, 04 Jun 1981 UTC launched from the Plesetsk Missile And Space Complex (PKMTR). Debris objects in space refer to the collection of defunct objects orbiting the Earth. Examples of debris include non-operational satellites, rocket bodies, and fragments generated from explosions, collisions, or faulty payload assembly.

Loading next visibility...
Identifier
13024, 1981-053EW
Orbit
LEO
Country
Flag of CISCIS
Related business
Manufacturer
Unknown
Mission
Spacecraft
Bus & Motor
Unknown
Mass
Unknown
Launch date (UTC)
1981-06-04 (45 years ago)
Launch vehicle
Unknown
Launch site
Plesetsk Missile And Space Complex (PKMTR)
Object type
Payload
Rocket body
Debris
Shape & HBR
Unknown shape, 0.1 m
Radar Cross Section
Small (<0.1 m²)

Expand to show TLE details & history
Last TLE update: 11 hours ago

TLE from 11 hours ago
0 COSMOS 1275 DEB
1 13024U 81053EW  26074.19110034  .00002240  00000-0  13207-2 0  9998
2 13024  82.9248 331.5026 0043482 352.8178 121.5951 14.07047211247116
Epoch: 2026-03-15T04:35Z
TLE epoch observation values (Epoch: 2026-03-15T04:35:11.069Z)
Latitude
64.32528°
Longitude
-104.97724°
Altitude
897.203 km
Speed
7.401 km/s
True Right ascension
09h 06m 28s
True Declination
64° 11' 36"
Sunlit
Object was in daylight at epoch
Visualization orbit readout
Latitude
Unknown
Longitude
Unknown
Altitude
Unknown
Speed
Unknown
Apparent Right ascension
Unknown
Apparent Declination
Unknown
Sunlit
N/A
Visualization observer readout
Local Sidereal Time
19:59:18
Azimuth
Unknown
Elevation
Unknown
Doppler factor
Unknown
Orbital elements
Apogee altitude
898.101 km
Perigee altitude
835.097 km
Semi-major axis
7,244.736 km
Eccentricity
0.00435
Inclination
82.9248°
RAAN
331.5026°
Arg. of periapsis
352.8178°
True anomaly
122.0183°
Mean anomaly
121.5951°
Eccentric anomaly
121.80682°
Mean motion
3.51973 °/min
Orbital period
102.28 mins
BSTAR
0.0013207
Loading maneuver chart data...
Computing Atmospheric mass density...

Documentation

Showing up to 5 results
|